Regional Weather Roundup
Issued by NWS

Home | Current Version | Previous Version | Text Only | Print | Product List | Glossary On
Versions: 1 2 3 4 5 6 7 8 9 10 11 12 13 14 15 16 17 18 19 20 21 22 23 24 25 26 27 28 29 30 31 32 33 34 35 36 37 38 39 40 41 42 43 44 45 46 47 48 49 50
000
ASUS44 KFWD 280515
RWRTX
NORTH TEXAS HOURLY WEATHER ROUNDUP
NATIONAL WEATHER SERVICE FORT WORTH TX
1200 AM CDT FRI JUL 28 2017

NOTE: "FAIR" INDICATES FEW OR NO CLOUDS BELOW 12,000 FEET WITH NO
SIGNIFICANT WEATHER AND/OR OBSTRUCTIONS TO VISIBILITY.

TXZ118-119-280600-
DALLAS/FORT WORTH METROPLEX

CITY           SKY/WX    TMP DP  RH WIND       PRES   REMARKS
DFW AIRPORT    MOCLDY    87  68  52 S9        29.90S HX  90
DALLAS LOVE    MOCLDY    90  67  46 S14       29.91S HX  93
FTW MEACHAM    PTCLDY    88  67  49 S9        29.91R HX  91
DAL-EXECUTIVE  CLOUDY    84  69  60 S5        29.92R
FTW-ALLIANCE   MOCLDY    84  67  56 S8        29.91R
FTW-NAS-JRB    PTCLDY    86  65  49 S7        29.91S
FTW-SPINKS     MOCLDY    84  65  52 S5        29.93S
ARLINGTON      PTCLDY    84  69  60 SE5       29.92R
GRAND PRAIRIE  PTCLDY    87  65  49 SE5       29.93R
ADDISON        CLEAR     87  68  52 S9        29.93S HX  91
MESQUITE       MOCLDY    80  71  73 CALM      29.92S
LANCASTER      MOCLDY    81  70  69 SE3       29.93R
$$

TXZ091>094-102>105-117-120-121-131>134-280600-
NORTH CENTRAL TEXAS

CITY           SKY/WX    TMP DP  RH WIND       PRES   REMARKS
SHRMAN/DENISON CLEAR     84  69  62 S10       29.92S
GAINESVILLE    PTCLDY    78  69  73 SE5       29.92F
BOWIE          PTCLDY    82  68  61 SE3       29.91F
BRIDGEPORT     CLEAR     84  64  50 S8        29.93S
DECATUR        CLEAR     86  66  50 S9        29.93S
DENTON         CLEAR     80  72  76 S6        29.91R
MCKINNEY       CLEAR     81  73  76 S5        29.92S
BONHAM         PTCLDY    82  70  65 S10       29.92S
GREENVILLE     CLEAR     84  72  65 S6        29.93S
ROCKWALL       PTCLDY    83  72  67 S6        29.92F
TERRELL          N/A     83  70  64 S3        29.93R
WAXAHACHIE     MOCLDY    82  68  63 SE5       29.94S
CLEBURNE       PTCLDY    84  66  54 S7        29.94S
GRANBURY       PTCLDY    85  65  50 CALM      29.93R
$$

TXZ083>090-098>101-113>116-127>130-139>142-154-155-280600-
WESTERN NORTH TEXAS

CITY           SKY/WX    TMP DP  RH WIND       PRES   REMARKS
WICHITA FALLS  MOCLDY    83  66  56 S9        29.88F
WF-KICKAPOO    MOCLDY    83  68  61 S6        29.91F
VERNON         PTCLDY    85  63  48 N8        29.93R
ABILENE        PTCLDY    85  60  42 S10       29.97R
ABILENE-DYESS  CLEAR     81  60  48 S7        29.95S
GRAHAM         CLEAR     83  62  49 SE3       29.91S
BRECKENRIDGE   CLOUDY    85  60  41 S7        29.93S
CISCO          PTCLDY    81  63  54 S6        29.97R
EASTLAND       CLOUDY    75  64  70 CALM      29.95S
RANGER         CLOUDY    83  62  49 S6        29.96R
MINERAL WELLS  CLEAR     81  65  58 SE8       29.91R
STEPHENVILLE   PTCLDY    80  64  57 CALM      29.98R
COMANCHE       PTCLDY    78  64  60 S7        29.96S
BROWNWOOD      PTCLDY    84  63  48 S6        29.96S
COLEMAN        CLOUDY    83  60  45 S6        29.98R
$$

TXZ143>147-156>162-174-175-280600-
CENTRAL TEXAS

CITY           SKY/WX    TMP DP  RH WIND       PRES   REMARKS
WACO           PTCLDY    86  71  60 S10       29.92R HX  91
WACO-MCGREGOR  CLEAR     86  70  58 S7        29.94R HX  90
HILLSBORO      CLOUDY    87  70  56 SE9       29.93S HX  92
CORSICANA      MOCLDY    83  72  69 S7        29.94R
MEXIA          PTCLDY    81  70  69 S12       29.93S
HEARNE         CLEAR     83  71  67 SE7       29.95R
CAMERON        CLEAR     86  71  60 S12       29.94R HX  91
TEMPLE         CLEAR     86  70  58 S10       29.95R HX  90
KILLEEN        CLEAR     86  68  54 S8        29.95R
KILLEEN-SKYLRK CLEAR     86  70  58 S12       29.96R HX  90
FORT HOOD      CLEAR    N/A N/A N/A S10       29.93R
HAMILTON       CLEAR     81  64  55 S8        29.97S
LAMPASAS       CLEAR     83  67  57 S3        29.96S
$$

TXZ095>097-106>112-122>126-135>138-148>153-164>167-280600-
EAST TEXAS

CITY           SKY/WX    TMP DP  RH WIND       PRES   REMARKS
PARIS          PTCLDY    79  73  82 S6        29.92S
SULPHUR SPRNGS CLEAR     84  72  66 S9        29.94S HX  90
MOUNT PLEASANT PTCLDY    80  72  75 S5        29.93F
GILMER         MOCLDY    83  73  73 S6        29.94S
MINEOLA        PTCLDY    84  73  70 S7        29.93F HX  91
TYLER          CLOUDY    83  74  74 S7        29.94S
LONGVIEW       MOCLDY    81  75  82 S5        29.93S
MARSHALL         N/A     77  72  84 CALM      29.96S
ATHENS         CLOUDY    79  70  73 CALM      29.92F
PALESTINE      CLOUDY    83  73  70 SE5       29.96R
JACKSONVILLE   CLOUDY    82  74  77 S7        29.98R
HENDERSON      CLOUDY    78  74  88 CALM      29.96S
CENTER         CLOUDY    81  79  95 CALM      29.96S
NACOGDOCHES    PTCLDY    79  73  83 CALM      29.94R
LUFKIN         PTCLDY    80  74  81 S6        29.95R
$$

SUPPLEMENTAL OBSERVATIONS (NWS FORT WORTH AREA)

CITY           SKY/WX    TMP DP  RH WIND       PRES   REMARKS
DENISON DAM      N/A     86  68  54 S6          N/A
CADDO GRASSLND   N/A     84  70  61 S10         N/A
PAT MAYSE LAKE   N/A     84  75  74 SE13        N/A  HX  92
GREENVILLE       N/A     82  70  65 S5          N/A
CEDAR HILL       N/A     86  64  48 SE8         N/A
LBJ GRASSLAND    N/A     86  66  51 SE8         N/A
POSSUM KINGDOM   N/A     84  61  45 S3          N/A
GRANBURY         N/A     84  64  51 S2          N/A
COMANCHE         N/A     81  63  54 S7          N/A
MCGREGOR         N/A     84  66  54 S8          N/A
TEMPLE           N/A     84  66  54 S8          N/A
LAKE LIMESTONE   N/A     81  68  65 S2          N/A
ATHENS           N/A     82  70  65 S3          N/A
$$

SUPPLEMENTAL OBSERVATIONS (NWS NORMAN AREA)

CITY           SKY/WX    TMP DP  RH WIND       PRES   REMARKS
GOODLETT         N/A     80  67  63 NE10      29.95R
ODELL            N/A     79  69  70 NE8       29.95S
CROWELL          N/A     85  61  44 S7        29.93S
KNOX CITY        N/A     86  56  35 S10       29.93S
SEYMOUR          N/A     86  59  39 SE8       29.92S
MILLERS CREEK    N/A     86  64  48 SE12        N/A
$$

SUPPLEMENTAL OBSERVATIONS (NWS SAN ANGELO AREA)

CITY           SKY/WX    TMP DP  RH WIND       PRES   REMARKS
WEINERT          N/A     83  61  47 S8        29.94S
HASKELL          N/A     86  55  34 SE8       29.94S
THROCKMORTON     N/A     83  64  52 S7        29.94S
STAMFORD         N/A     83  60  45 SE6       29.95S
CLYDE            N/A     81  60  48 S7        30.00S
HAMBY            N/A     84  57  39 S6          N/A
IVIE RESERVOIR   N/A     82  59  44 SE8         N/A
COLORADO BEND    N/A     84  63  48 CALM        N/A
$$

SUPPLEMENTAL OBSERVATIONS (NWS SHREVEPORT AREA)

CITY           SKY/WX    TMP DP  RH WIND       PRES   REMARKS
CLARKSVILLE      N/A     82  72  69 S5          N/A
TEXARKANA        N/A     77  73  88 CALM        N/A
LINDEN           N/A     82  72  69 S3          N/A
CADDO LAKE       N/A     75  73  94 CALM        N/A
GILMER           N/A     82  72  69 SW2         N/A
HENDERSON        N/A     79  75  89 CALM        N/A
LUFKIN           N/A     81  75  83 MISG        N/A
N SABINE NF      N/A     75  72  88 MISG        N/A
S SABINE NF      N/A     77  73  88 S1          N/A
$$

SUPPLEMENTAL OBSERVATIONS ARE A COLLECTION OF AUTOMATED INSTRUMENTS
THAT ARE MAINTAINED BY A VARIETY OF FEDERAL AND STATE AGENCIES.
CERTAIN ELEMENTS...SUCH AS HUMIDITY VALUES AND SUSTAINED WIND
SPEEDS...MAY BE APPROXIMATED.




USA.gov is the U.S. government's official web portal to all federal, state and local government web resources and services.